User: anonymous   Login
Location: Chevoux
(46.3801°N, 4.9476°E)
Time: 10:18:06
(UTC+00:00)
Language:

Cosmos 1943 Rocket - Orbit

View from above orbital plane
View from above orbital plane
View from above satellite
View from above satellite

Ground track
Ground track

The orbit data is extracted from the following two-line orbital elements,

1 19120U 88039B   21100.69377103  .00000117  00000-0  78440-4 0  9997
2 19120  71.0137 260.4349 0023232 216.0949 143.8609 14.19222151703824
Epoch (UTC): 10 April 2021 16:39:01
Eccentricity: 0.0023232
inclination: 71.0137°
perigee height: 811 km
apogee height: 845 km
right ascension of ascending node: 260.4349°
argument of perigee: 216.0949°
revolutions per day: 14.19222151
mean anomaly at epoch: 143.8609°
orbit number at epoch: 70382

The dashed part of the orbit path shows where the satellite is in the earth's shadow,  

DLR